Location: Newark
(51.0967°N, 24.7917°E)
Time: 13:50:00
(UTC+00:00)

STARLINK-1311 - Visible Passes

Search period start: 06 August 2020 00:00
Search period end: 16 August 2020 00:00
Orbit: 324 x 330 km, 53.0° (Epoch: 06 August)

Date Brightness Start Highest point End Pass type
(mag) Time Alt. Az. Time Alt. Az. Time Alt. Az.
06 Aug 3.5 00:04:54 41° E 00:04:54 41° E 00:06:55 10° ENE visible
06 Aug 3.2 01:36:08 10° W 01:38:53 55° N 01:41:39 10° ENE visible
07 Aug 2.6 00:21:51 74° NNW 00:21:56 74° NNW 00:24:43 10° ENE visible
07 Aug 3.2 01:53:59 10° WNW 01:56:45 57° N 01:59:30 10° E visible
07 Aug 5.7 23:07:38 10° ENE 23:07:38 10° ENE 23:07:40 10° ENE visible
08 Aug 3.1 00:38:41 34° WNW 00:39:36 56° N 00:42:21 10° ENE visible
08 Aug 2.7 02:11:37 10° WNW 02:14:24 76° NNE 02:17:11 10° ESE visible
08 Aug 5.2 23:24:21 17° ENE 23:24:21 17° ENE 23:25:07 10° ENE visible
09 Aug 3.2 00:55:24 20° WNW 00:57:07 55° N 00:59:52 10° E visible
09 Aug 4.6 23:41:01 25° ENE 23:41:01 25° ENE 23:42:25 10° ENE visible
10 Aug 2.8 01:12:04 13° WNW 01:14:27 68° NNE 01:17:13 10° E visible
10 Aug 4.1 23:57:43 34° ENE 23:57:43 34° ENE 23:59:34 10° E visible
11 Aug 2.4 01:28:46 10° WNW 01:31:33 78° SSW 01:34:19 10° ESE visible
12 Aug 3.7 00:14:33 41° ENE 00:14:33 41° ENE 00:16:35 10° E visible
12 Aug 2.9 01:45:45 10° W 01:48:23 40° SSW 01:51:01 10° SE visible
13 Aug 4.0 00:31:48 30° ESE 00:31:48 30° ESE 00:33:23 10° ESE visible
13 Aug 3.9 02:02:54 11° W 02:04:55 20° SW 02:07:05 10° SSE visible
14 Aug 5.3 00:49:44 11° SE 00:49:44 11° SE 00:49:49 10° SE visible
15 Aug 3.8 18:59:21 10° SSW 19:01:35 22° SE 19:01:43 22° SE visible
